Vorticity
5 -1 1 5 -5 8 -3 4 -5 1 22 7 9 4 1 -4 -1 6 5 8 5 4 5 3 5 5 10 3 2 0 4 4 2 4 5 6 6 5 7 11 10 5 3 5
1 -6 9 4 6 14 7 -4 -8 -4 5 7 8 6 4 4 9 2 4 7 7 7 5 6 6 7 3 -0 0 3 4 2 4 4 6 7 7 10 10 5 2 6 7 3
-2 7 6 5 7 7 8 11 12 6 5 5 4 6 5 8 11 16 0 5 13 8 9 9 8 5 3 3 4 5 5 6 5 6 8 12 11 7 4 8 4 2 5 7
9 6 4 5 7 6 6 10 5 6 5 8 5 -1 2 7 3 3 2 0 -1 4 5 6 4 3 4 6 7 5 7 9 8 9 10 6 7 6 3 4 7 7 3 2
5 6 4 5 6 4 4 4 3 4 5 5 9 13 3 0 -4 7 15 4 22 -1 3 3 7 7 6 5 8 11 9 7 9 11 7 6 4 4 6 4 4 4 3 2
4 4 4 5 6 8 9 12 14 14 11 12 8 7 2 9 14 -8 -22 30 -16 -10 6 6 6 8 10 11 11 10 9 6 6 6 5 8 6 3 3 1 2 3 6 6
7 7 10 10 11 14 14 15 15 19 16 15 15 7 -4 21 4 9 15 6 6 8 7 8 5 6 7 10 11 10 10 7 8 9 6 4 2 2 1 3 4 6 5 5
15 10 14 11 10 10 9 10 8 7 7 7 4 10 7 8 8 8 4 6 7 18 9 -6 9 9 15 12 11 8 7 7 5 4 2 1 -2 2 4 7 10 12 15 21
10 9 6 6 7 11 12 11 13 13 13 15 11 5 6 7 2 28 3 0 -19 15 6 19 12 11 9 7 8 9 4 3 -0 1 0 2 3 5 9 12 13 18 13 12
5 7 7 11 14 9 8 9 8 10 11 17 19 11 -1 6 -4 -11 -9 9 1 10 19 14 13 9 10 8 4 4 0 2 -0 0 4 4 5 8 10 12 16 13 9 10
9 10 10 9 3 4 2 4 10 9 11 14 17 12 16 21 17 9 7 11 14 21 7 15 15 11 3 5 4 2 -1 -0 3 5 4 6 3 6 14 14 12 7 11 13
8 2 4 1 5 3 -1 -0 5 6 14 12 15 24 9 10 9 13 19 13 4 17 9 5 1 4 3 3 1 1 0 0 5 5 6 6 9 13 13 16 13 10 9 16
-1 0 -1 4 5 -1 1 2 4 8 13 15 15 12 13 12 12 6 -0 15 15 3 4 2 2 2 4 -1 3 1 0 5 4 6 6 9 13 9 15 8 8 12 11 21
1 3 4 2 2 -1 0 -3 0 5 11 15 16 16 16 1 15 16 13 13 3 2 2 1 3 4 0 3 3 2 5 3 6 8 12 8 4 7 8 10 10 13 24 21
1 2 2 5 4 3 1 2 -1 -1 6 15 17 15 8 12 14 5 7 3 2 5 2 4 3 2 4 2 5 5 5 8 7 8 4 11 8 11 11 20 27 44 18 11
3 3 3 3 3 5 5 3 5 -1 3 6 16 21 10 21 13 1 2 1 6 4 3 4 2 3 1 5 5 7 7 8 8 7 11 10 11 18 27 52 32 29 -3 -6
3 3 2 3 4 3 5 4 6 5 5 5 13 15 14 16 7 5 4 4 3 4 4 3 1 0 3 3 4 7 8 10 12 10 9 15 15 17 25 25 24 -11 -15 28
3 2 3 3 4 3 3 3 3 5 3 11 7 10 12 8 6 5 3 3 5 4 4 1 1 4 4 6 6 10 7 12 9 8 11 17 19 26 24 15 31 20 34 -3
4 3 3 2 3 3 2 2 9 3 4 12 9 8 17 15 6 6 3 4 4 4 1 4 6 5 6 6 4 9 13 12 8 14 13 21 24 26 28 27 20 42 -3 28
4 3 3 2 2 4 3 8 2 5 6 7 7 16 15 10 5 4 4 6 3 2 4 4 6 7 5 7 7 10 10 8 7 14 20 30 31 32 21 16 24 18 30 19
4 2 3 3 4 7 -0 4 8 7 6 6 10 11 13 8 4 6 4 2 5 3 3 5 5 5 7 10 11 7 7 5 13 28 36 30 24 17 31 43 28 29 9 4
4 3 4 4 5 4 4 9 9 6 4 7 10 13 9 7 6 2 2 6 3 2 5 5 5 8 11 10 9 6 7 14 28 30 32 20 27 36 33 31 26 21 -1 5
3 3 5 7 9 1 5 9 10 5 4 9 12 13 7 5 2 2 4 6 3 4 5 5 7 10 9 12 6 7 15 27 31 29 20 26 30 29 13 3 21 3 3 7
6 5 6 5 3 4 6 12 7 4 7 10 15 10 4 2 5 2 5 4 4 5 5 6 10 10 12 8 6 13 25 29 26 25 22 27 24 4 8 18 5 3 4 9
9 11 10 9 7 7 12 6 6 4 9 15 13 3 2 7 4 4 5 6 6 7 7 10 10 8 8 8 10 19 31 30 31 18 27 20 6 6 13 12 5 4 5 11
13 12 7 -1 13 11 6 5 2 4 15 14 4 5 6 6 6 4 6 8 8 8 9 9 8 9 9 9 19 25 30 30 23 18 22 9 6 9 15 10 4 6 6 12
Height
5809 5811 5812 5814 5817 5819 5821 5823 5822 5823 5826 5828 5829 5827 5825 5825 5826 5825 5825 5826 5823 5822 5821 5820 5818 5816 5815 5812 5809 5808 5806 5802 5796 5790 5785 5781 5775 5770 5765 5759 5754 5748 5744 5741
5809 5812 5813 5814 5816 5819 5821 5822 5822 5823 5826 5826 5826 5826 5825 5825 5824 5822 5823 5822 5821 5820 5818 5817 5815 5812 5810 5808 5806 5803 5799 5794 5788 5783 5779 5775 5768 5763 5756 5750 5744 5739 5735 5730
5811 5812 5813 5814 5816 5817 5818 5820 5822 5823 5824 5825 5823 5820 5820 5821 5820 5818 5817 5818 5818 5818 5817 5815 5811 5808 5806 5803 5799 5795 5791 5786 5780 5775 5771 5765 5760 5755 5749 5742 5736 5729 5722 5714
5810 5811 5812 5813 5817 5816 5818 5820 5820 5819 5819 5820 5819 5818 5814 5814 5814 5812 5812 5813 5813 5812 5812 5810 5804 5801 5798 5794 5791 5787 5782 5778 5773 5767 5761 5756 5750 5745 5739 5733 5726 5718 5710 5702
5809 5810 5811 5813 5814 5814 5815 5815 5815 5815 5815 5814 5815 5813 5807 5804 5804 5807 5809 5808 5805 5804 5803 5802 5800 5797 5793 5789 5784 5778 5771 5765 5761 5759 5756 5750 5742 5736 5729 5721 5713 5704 5696 5688
5807 5809 5809 5810 5810 5810 5810 5810 5810 5810 5810 5811 5810 5808 5801 5800 5799 5800 5804 5803 5798 5796 5794 5791 5789 5787 5785 5780 5774 5768 5762 5756 5750 5746 5740 5736 5732 5725 5718 5710 5701 5692 5681 5670
5804 5806 5806 5807 5808 5807 5807 5807 5807 5807 5806 5807 5807 5804 5799 5798 5796 5796 5795 5793 5791 5789 5786 5781 5776 5771 5769 5768 5764 5760 5756 5750 5744 5738 5731 5723 5714 5707 5699 5690 5681 5672 5659 5648
5802 5804 5805 5805 5806 5806 5805 5805 5804 5803 5803 5803 5802 5797 5795 5794 5791 5786 5785 5783 5783 5783 5780 5773 5770 5767 5762 5756 5751 5747 5742 5737 5733 5727 5721 5714 5705 5696 5685 5674 5662 5650 5639 5627
5800 5802 5803 5803 5803 5804 5803 5802 5802 5801 5801 5801 5797 5793 5790 5793 5788 5782 5777 5774 5776 5775 5774 5769 5763 5759 5755 5750 5745 5740 5734 5728 5722 5715 5707 5698 5688 5677 5665 5653 5641 5628 5616 5604
5799 5801 5801 5802 5802 5802 5802 5801 5800 5798 5797 5797 5794 5788 5786 5786 5784 5781 5773 5769 5767 5767 5761 5758 5755 5751 5746 5741 5735 5729 5723 5717 5709 5701 5691 5680 5670 5657 5644 5631 5619 5607 5593 5581
5798 5800 5802 5802 5802 5801 5800 5798 5796 5794 5792 5789 5790 5784 5779 5777 5773 5773 5768 5764 5762 5762 5757 5752 5748 5743 5738 5733 5728 5721 5714 5705 5697 5686 5673 5660 5649 5637 5623 5609 5596 5583 5572 5559
5798 5799 5800 5800 5800 5799 5797 5796 5795 5792 5789 5783 5779 5782 5774 5768 5765 5761 5760 5756 5753 5752 5749 5745 5741 5734 5727 5721 5715 5707 5698 5690 5680 5669 5655 5641 5629 5618 5606 5593 5576 5562 5550 5539
5796 5797 5798 5798 5799 5797 5794 5790 5787 5784 5782 5780 5774 5773 5767 5761 5761 5755 5756 5752 5749 5744 5740 5735 5729 5724 5718 5711 5702 5692 5682 5672 5661 5649 5636 5624 5610 5598 5589 5576 5560 5544 5531 5520
5794 5794 5794 5794 5794 5792 5790 5787 5784 5779 5776 5773 5770 5766 5762 5753 5753 5752 5749 5746 5741 5736 5731 5726 5720 5713 5705 5697 5688 5678 5668 5655 5643 5631 5615 5600 5588 5574 5563 5552 5538 5521 5509 5499
5791 5792 5791 5790 5789 5788 5786 5783 5780 5777 5772 5766 5764 5758 5752 5752 5748 5743 5742 5739 5735 5729 5723 5717 5710 5702 5695 5686 5675 5662 5649 5638 5624 5609 5593 5579 5566 5551 5536 5523 5512 5499 5489 5483
5788 5788 5787 5786 5784 5783 5781 5777 5774 5771 5767 5763 5757 5753 5745 5744 5743 5740 5736 5731 5725 5719 5713 5707 5699 5691 5682 5671 5660 5647 5631 5615 5601 5588 5575 5556 5542 5528 5516 5504 5496 5487 5476 5470
5783 5783 5782 5782 5779 5776 5774 5772 5768 5764 5758 5755 5750 5747 5743 5740 5735 5732 5727 5722 5716 5710 5703 5695 5686 5676 5665 5653 5641 5627 5613 5599 5583 5567 5556 5540 5525 5513 5501 5490 5484 5474 5463 5457
5778 5777 5776 5775 5773 5771 5767 5764 5761 5756 5752 5749 5742 5738 5733 5730 5725 5721 5717 5712 5706 5698 5690 5681 5670 5659 5648 5636 5625 5615 5599 5582 5567 5551 5536 5521 5504 5494 5483 5472 5464 5456 5449 5443
5772 5770 5769 5767 5764 5763 5759 5757 5754 5750 5746 5742 5736 5730 5725 5720 5715 5711 5704 5697 5691 5684 5676 5666 5656 5646 5634 5622 5608 5593 5579 5566 5550 5533 5517 5504 5490 5476 5464 5454 5448 5443 5440 5434
5764 5763 5762 5759 5756 5753 5750 5746 5744 5741 5738 5733 5729 5724 5718 5713 5708 5703 5698 5692 5684 5675 5665 5654 5642 5629 5615 5602 5588 5575 5562 5550 5535 5517 5498 5481 5467 5456 5448 5441 5437 5432 5428 5425
5756 5755 5754 5751 5749 5747 5743 5738 5735 5732 5730 5723 5718 5713 5708 5703 5697 5691 5685 5677 5668 5659 5649 5637 5625 5613 5599 5585 5573 5561 5549 5532 5513 5495 5479 5466 5455 5444 5436 5428 5425 5424 5422 5418
5748 5747 5745 5742 5740 5738 5733 5730 5728 5722 5716 5712 5707 5701 5695 5690 5685 5678 5671 5662 5653 5644 5633 5622 5611 5599 5586 5573 5559 5545 5532 5515 5496 5480 5468 5456 5445 5436 5429 5423 5421 5421 5418 5412
5740 5739 5736 5734 5730 5725 5722 5720 5716 5708 5704 5699 5694 5689 5683 5677 5671 5664 5656 5647 5638 5628 5617 5607 5595 5584 5570 5555 5538 5524 5509 5493 5479 5467 5457 5447 5438 5432 5427 5423 5419 5416 5412 5406
5729 5727 5726 5722 5719 5713 5712 5708 5703 5698 5693 5687 5682 5676 5670 5664 5657 5650 5642 5633 5623 5612 5601 5590 5578 5566 5554 5539 5524 5509 5493 5478 5466 5457 5448 5440 5435 5430 5425 5420 5416 5412 5406 5401
5723 5717 5716 5712 5707 5702 5699 5694 5690 5687 5681 5675 5670 5664 5658 5651 5644 5636 5627 5617 5607 5596 5585 5573 5561 5550 5539 5524 5509 5495 5480 5467 5457 5448 5442 5436 5431 5427 5421 5417 5412 5408 5402 5396
5712 5707 5705 5703 5700 5694 5688 5682 5679 5675 5669 5663 5657 5651 5644 5637 5629 5620 5610 5600 5590 5580 5569 5558 5546 5534 5522 5510 5494 5479 5467 5457 5448 5442 5436 5431 5427 5422 5417 5413 5408 5402 5396 5390